Sun, 20 Sep 2020 07:02:01 UTC

Information for RPM gmp-1:6.1.2-4.fc26.ppc64le.rpm

ID9333623
Namegmp
Version6.1.2
Release4.fc26
Epoch1
Archppc64le
SummaryA GNU arbitrary precision library
DescriptionThe gmp package contains GNU MP, a library for arbitrary precision arithmetic, signed integers operations, rational numbers and floating point numbers. GNU MP is designed for speed, for both small and very large operands. GNU MP is fast because it uses fullwords as the basic arithmetic type, it uses fast algorithms, it carefully optimizes assembly code for many CPUs' most common inner loops, and it generally emphasizes speed over simplicity/elegance in its operations. Install the gmp package if you need a fast arbitrary precision library.
Build Time2017-03-13 15:10:29 GMT
Size296,426
a8accd47fbf08233fed3665e71647c6b
LicenseLGPLv3+ or GPLv2+
Buildrootf26-build-7945382-710471
Provides
gmp = 1:6.1.2-4.fc26
gmp(ppc-64) = 1:6.1.2-4.fc26
libgmp.so.10()(64bit)
Obsoletes No Obsoletes
Conflicts No Conflicts
Requires
/sbin/ldconfig
/sbin/ldconfig
libc.so.6()(64bit)
libc.so.6(GLIBC_2.17)(64bit)
rpmlib(CompressedFileNames) <= 3.0.4-1
rpmlib(FileDigests) <= 4.6.0-1
rpmlib(PayloadFilesHavePrefix) <= 4.0-1
rpmlib(PayloadIsXz) <= 5.2-1
rtld(GNU_HASH)
Recommends No Recommends
Suggests No Suggests
Supplements No Supplements
Enhances No Enhances
Files
1 through 10 of 10
Name ascending sort Size
/usr/lib64/libgmp.so.1016
/usr/lib64/libgmp.so.10.3.2598,384
/usr/share/doc/gmp4,096
/usr/share/doc/gmp/NEWS36,740
/usr/share/doc/gmp/README4,051
/usr/share/licenses/gmp4,096
/usr/share/licenses/gmp/COPYING35,147
/usr/share/licenses/gmp/COPYING.LESSERv37,639
/usr/share/licenses/gmp/COPYINGv218,092
/usr/share/licenses/gmp/COPYINGv335,150
Component of
Page:
1 through 50 of 73597 >>>
Buildroot descending sort Created State
f26-build-12570040-918933 2018-05-29 14:07:03 expired
f26-build-12569903-918933 2018-05-29 13:45:51 expired
f26-build-12569836-918933 2018-05-29 13:24:32 expired
f26-build-12569819-918933 2018-05-29 13:19:37 expired
f26-build-12569671-918933 2018-05-29 12:59:15 expired
f26-build-12569540-918933 2018-05-29 12:43:05 expired
f26-build-12569468-918933 2018-05-29 12:34:55 expired
f26-build-12569366-918933 2018-05-29 12:19:06 expired
f26-build-12569324-918933 2018-05-29 12:11:27 expired
f26-build-12569266-918933 2018-05-29 12:03:17 expired
f26-build-12569209-918933 2018-05-29 11:49:00 expired
f26-build-12569056-918933 2018-05-29 11:27:41 expired
f26-build-12568865-918933 2018-05-29 11:03:57 expired
f26-build-12568677-918933 2018-05-29 10:41:23 expired
f26-build-12568495-918494 2018-05-29 10:23:11 expired
f26-build-12568441-918494 2018-05-29 10:18:34 expired
f26-build-12568263-918494 2018-05-29 10:02:55 expired
f26-build-12568081-918494 2018-05-29 09:33:25 expired
f26-build-12560581-918494 2018-05-28 20:53:28 expired
f26-build-12560554-918494 2018-05-28 20:29:40 expired
f26-build-12560535-918494 2018-05-28 20:14:01 expired
f26-build-12560516-918494 2018-05-28 20:06:05 expired
f26-build-12559120-917680 2018-05-28 13:38:01 expired
f26-build-12559097-917680 2018-05-28 13:36:03 expired
f26-build-12559056-917680 2018-05-28 13:20:12 expired
f26-build-12559054-917680 2018-05-28 13:18:45 expired
f26-build-12559038-917680 2018-05-28 13:08:00 expired
f26-build-12558855-917680 2018-05-28 12:35:11 expired
f26-build-12558443-917680 2018-05-28 10:46:20 expired
f26-build-12558422-917680 2018-05-28 10:43:29 expired
f26-build-12557868-917680 2018-05-28 09:20:14 expired
f26-build-12557761-917680 2018-05-28 09:06:57 expired
f26-build-12557267-917680 2018-05-28 08:17:39 expired
f26-build-12535242-917328 2018-05-26 21:55:30 expired
f26-build-12535098-917328 2018-05-26 21:52:13 expired
f26-build-12534873-917328 2018-05-26 21:40:23 expired
f26-build-12525233-916615 2018-05-25 20:38:09 expired
f26-build-12525205-916615 2018-05-25 20:35:25 expired
f26-build-12523628-916615 2018-05-25 15:28:55 expired
f26-build-12523427-916615 2018-05-25 14:25:31 expired
f26-build-12523375-915740 2018-05-25 14:02:45 expired
f26-build-12523294-915740 2018-05-25 13:34:15 expired
f26-build-12523283-915740 2018-05-25 13:31:19 expired
f26-build-12523157-915740 2018-05-25 11:46:08 expired
f26-build-12523139-915740 2018-05-25 11:43:07 expired
f26-build-12522820-915740 2018-05-25 10:33:39 expired
f26-build-12522801-915740 2018-05-25 10:31:31 expired
f26-build-12522777-915740 2018-05-25 10:27:26 expired
f26-build-12518156-915740 2018-05-25 01:56:03 expired
f26-build-12515686-915740 2018-05-24 17:47:15 expired